Time,TemperatureF,DewpointF,PressureIn,WindDirection,WindDirectionDegrees,WindSpeedMPH,WindSpeedGustMPH,Humidity,HourlyPrecipIn,Conditions,Clouds,dailyrainin,SolarRadiationWatts/m^2,SoftwareType,DateUTC
2013-03-03 00:21:00,55.0,18.0,30.12,SW,227,8.0,19.0,23,0.00,,,0.00,0.000000,,2013-03-03 08:21:00,
2013-03-03 00:31:00,55.0,18.0,30.12,SW,227,8.0,19.0,23,0.00,,,0.00,0.000000,,2013-03-03 08:31:00,
2013-03-03 00:41:00,55.0,18.0,30.12,SW,227,8.0,19.0,23,0.00,,,0.00,0.000000,,2013-03-03 08:41:00,
2013-03-03 00:53:00,55.0,18.0,30.12,SW,227,8.0,19.0,23,0.00,,,0.00,0.000000,,2013-03-03 08:53:00,
2013-03-03 01:21:00,60.0,33.0,30.12,WSW,237,12.0,23.0,36,0.00,,,0.00,0.000000,,2013-03-03 09:21:00,
2013-03-03 02:21:00,62.0,31.0,30.11,SW,234,9.0,21.0,31,0.00,,,0.00,0.000000,,2013-03-03 10:21:00,
2013-03-03 02:32:00,62.0,31.0,30.11,SW,234,9.0,21.0,31,0.00,,,0.00,0.000000,,2013-03-03 10:32:00,
2013-03-03 02:42:00,62.0,31.0,30.11,SW,234,9.0,21.0,31,0.00,,,0.00,0.000000,,2013-03-03 10:42:00,
2013-03-03 02:51:00,62.0,31.0,30.11,SW,234,9.0,21.0,31,0.00,,,0.00,0.000000,,2013-03-03 10:51:00,
2013-03-03 03:21:00,55.0,30.0,30.06,NNW,347,5.0,19.0,38,0.00,,,0.00,0.000000,,2013-03-03 11:21:00,
2013-03-03 03:31:00,55.0,30.0,30.06,NNW,347,5.0,19.0,38,0.00,,,0.00,0.000000,,2013-03-03 11:31:00,
2013-03-03 03:42:00,55.0,30.0,30.06,NNW,347,5.0,19.0,38,0.00,,,0.00,0.000000,,2013-03-03 11:42:00,
2013-03-03 03:52:00,55.0,30.0,30.06,NNW,347,5.0,19.0,38,0.00,,,0.00,0.000000,,2013-03-03 11:52:00,
2013-03-03 04:21:00,52.0,29.0,30.05,WNW,286,8.0,15.0,41,0.00,,,0.00,0.000000,,2013-03-03 12:21:00,
2013-03-03 04:32:00,52.0,29.0,30.05,WNW,286,8.0,15.0,41,0.00,,,0.00,0.000000,,2013-03-03 12:32:00,
2013-03-03 04:42:00,52.0,29.0,30.05,WNW,286,8.0,15.0,41,0.00,,,0.00,0.000000,,2013-03-03 12:42:00,
2013-03-03 04:52:00,52.0,29.0,30.05,WNW,286,8.0,15.0,41,0.00,,,0.00,0.000000,,2013-03-03 12:52:00,
2013-03-03 05:21:00,58.0,19.0,30.07,WSW,248,10.0,15.0,22,0.00,,,0.00,0.000000,,2013-03-03 13:21:00,
2013-03-03 05:32:00,58.0,19.0,30.07,WSW,248,10.0,15.0,22,0.00,,,0.00,0.000000,,2013-03-03 13:32:00,
2013-03-03 05:42:00,58.0,19.0,30.07,WSW,248,10.0,15.0,22,0.00,,,0.00,0.000000,,2013-03-03 13:42:00,
2013-03-03 05:51:00,58.0,19.0,30.07,WSW,248,10.0,15.0,22,0.00,,,0.00,0.000000,,2013-03-03 13:51:00,
2013-03-03 06:21:00,56.0,20.0,30.06,WSW,251,6.0,20.0,24,0.00,,,0.00,0.000000,,2013-03-03 14:21:00,
2013-03-03 06:32:00,56.0,20.0,30.06,WSW,251,6.0,20.0,24,0.00,,,0.00,0.000000,,2013-03-03 14:32:00,
2013-03-03 06:42:00,56.0,20.0,30.06,WSW,251,6.0,20.0,24,0.00,,,0.00,0.000000,,2013-03-03 14:42:00,
2013-03-03 06:52:00,56.0,20.0,30.06,WSW,251,6.0,20.0,24,0.00,,,0.00,0.000000,,2013-03-03 14:52:00,
2013-03-03 07:22:00,58.0,24.0,30.06,SW,219,9.0,16.0,27,0.00,,,0.00,12.000000,,2013-03-03 15:22:00,
2013-03-03 07:32:00,58.0,24.0,30.06,SW,219,9.0,16.0,27,0.00,,,0.00,12.000000,,2013-03-03 15:32:00,
2013-03-03 07:42:00,58.0,24.0,30.06,SW,219,9.0,16.0,27,0.00,,,0.00,12.000000,,2013-03-03 15:42:00,
2013-03-03 07:51:00,58.0,24.0,30.06,SW,219,9.0,16.0,27,0.00,,,0.00,12.000000,,2013-03-03 15:51:00,
2013-03-03 08:21:00,59.0,24.0,30.07,SW,230,9.0,15.0,26,0.00,,,0.00,80.000000,,2013-03-03 16:21:00,
2013-03-03 08:31:00,59.0,24.0,30.07,SW,230,9.0,15.0,26,0.00,,,0.00,80.000000,,2013-03-03 16:31:00,
2013-03-03 08:41:00,59.0,24.0,30.07,SW,230,9.0,15.0,26,0.00,,,0.00,80.000000,,2013-03-03 16:41:00,
2013-03-03 08:51:00,59.0,24.0,30.07,SW,230,9.0,15.0,26,0.00,,,0.00,80.000000,,2013-03-03 16:51:00,
2013-03-03 09:22:00,63.0,25.0,30.06,SW,214,11.0,16.0,23,0.00,,,0.00,205.000000,,2013-03-03 17:22:00,
2013-03-03 09:32:00,63.0,25.0,30.06,SW,214,11.0,16.0,23,0.00,,,0.00,205.000000,,2013-03-03 17:32:00,
2013-03-03 09:42:00,63.0,25.0,30.06,SW,214,11.0,16.0,23,0.00,,,0.00,205.000000,,2013-03-03 17:42:00,
2013-03-03 09:52:00,63.0,25.0,30.06,SW,214,11.0,16.0,23,0.00,,,0.00,205.000000,,2013-03-03 17:52:00,
2013-03-03 10:21:00,66.0,24.0,30.05,SSW,213,19.0,23.0,20,0.00,,,0.00,468.000000,,2013-03-03 18:21:00,
2013-03-03 10:31:00,66.0,24.0,30.05,SSW,213,19.0,23.0,20,0.00,,,0.00,468.000000,,2013-03-03 18:31:00,
2013-03-03 10:41:00,66.0,24.0,30.05,SSW,213,19.0,23.0,20,0.00,,,0.00,468.000000,,2013-03-03 18:41:00,
2013-03-03 10:52:00,66.0,24.0,30.05,SSW,213,19.0,23.0,20,0.00,,,0.00,468.000000,,2013-03-03 18:52:00,
2013-03-03 11:21:00,71.0,24.0,30.04,SW,233,14.0,26.0,17,0.00,,,0.00,662.000000,,2013-03-03 19:21:00,
2013-03-03 11:31:00,71.0,24.0,30.04,SW,233,14.0,26.0,17,0.00,,,0.00,662.000000,,2013-03-03 19:31:00,
2013-03-03 11:42:00,71.0,24.0,30.04,SW,233,14.0,26.0,17,0.00,,,0.00,662.000000,,2013-03-03 19:42:00,
2013-03-03 11:51:00,71.0,24.0,30.04,SW,233,14.0,26.0,17,0.00,,,0.00,662.000000,,2013-03-03 19:51:00,
2013-03-03 12:21:00,68.0,27.0,30.01,West,266,13.0,24.0,21,0.00,,,0.00,829.000000,,2013-03-03 20:21:00,
2013-03-03 12:32:00,68.0,27.0,30.01,West,266,13.0,24.0,21,0.00,,,0.00,829.000000,,2013-03-03 20:32:00,
2013-03-03 12:42:00,68.0,27.0,30.01,West,266,13.0,24.0,21,0.00,,,0.00,829.000000,,2013-03-03 20:42:00,
2013-03-03 12:52:00,68.0,27.0,30.01,West,266,13.0,24.0,21,0.00,,,0.00,829.000000,,2013-03-03 20:52:00,
2013-03-03 13:21:00,70.0,26.0,29.99,SW,231,16.0,27.0,19,0.00,,,0.00,902.000000,,2013-03-03 21:21:00,
2013-03-03 13:32:00,70.0,26.0,29.99,SW,231,16.0,27.0,19,0.00,,,0.00,902.000000,,2013-03-03 21:32:00,
2013-03-03 13:41:00,70.0,26.0,29.99,SW,231,16.0,27.0,19,0.00,,,0.00,902.000000,,2013-03-03 21:41:00,
2013-03-03 13:52:00,70.0,26.0,29.99,SW,231,16.0,27.0,19,0.00,,,0.00,902.000000,,2013-03-03 21:52:00,
2013-03-03 14:21:00,65.0,34.0,29.98,West,268,14.0,31.0,31,0.00,,,0.00,546.000000,,2013-03-03 22:21:00,
2013-03-03 14:32:00,65.0,34.0,29.98,West,268,14.0,31.0,31,0.00,,,0.00,546.000000,,2013-03-03 22:32:00,
2013-03-03 14:42:00,65.0,34.0,29.98,West,268,14.0,31.0,31,0.00,,,0.00,546.000000,,2013-03-03 22:42:00,
2013-03-03 14:52:00,65.0,34.0,29.98,West,268,14.0,31.0,31,0.00,,,0.00,546.000000,,2013-03-03 22:52:00,
2013-03-03 15:21:00,65.0,36.0,29.96,West,276,16.0,29.0,34,0.00,,,0.00,499.000000,,2013-03-03 23:21:00,
2013-03-03 15:31:00,65.0,36.0,29.96,West,276,16.0,29.0,34,0.00,,,0.00,499.000000,,2013-03-03 23:31:00,
2013-03-03 15:41:00,65.0,36.0,29.96,West,276,16.0,29.0,34,0.00,,,0.00,499.000000,,2013-03-03 23:41:00,
2013-03-03 15:52:00,65.0,36.0,29.96,West,276,16.0,29.0,34,0.00,,,0.00,499.000000,,2013-03-03 23:52:00,
2013-03-03 16:21:00,63.0,37.0,29.96,West,274,18.0,31.0,38,0.00,,,0.00,372.000000,,2013-03-04 00:21:00,
2013-03-03 16:32:00,63.0,37.0,29.96,West,274,18.0,31.0,38,0.00,,,0.00,372.000000,,2013-03-04 00:32:00,
2013-03-03 16:42:00,63.0,37.0,29.96,West,274,18.0,31.0,38,0.00,,,0.00,372.000000,,2013-03-04 00:42:00,
2013-03-03 16:51:00,63.0,37.0,29.96,West,274,18.0,31.0,38,0.00,,,0.00,372.000000,,2013-03-04 00:51:00,
2013-03-03 17:21:00,59.0,36.0,29.97,West,262,10.0,35.0,42,0.00,,,0.00,128.000000,,2013-03-04 01:21:00,
2013-03-03 17:31:00,59.0,36.0,29.97,West,262,10.0,35.0,42,0.00,,,0.00,128.000000,,2013-03-04 01:31:00,
2013-03-03 17:42:00,59.0,36.0,29.97,West,262,10.0,35.0,42,0.00,,,0.00,128.000000,,2013-03-04 01:42:00,
2013-03-03 17:51:00,59.0,36.0,29.97,West,262,10.0,35.0,42,0.00,,,0.00,128.000000,,2013-03-04 01:51:00,
2013-03-03 18:22:00,56.0,36.0,29.98,West,265,11.0,34.0,46,0.00,,,-99.99,27.000000,,2013-03-04 02:22:00,
2013-03-03 18:32:00,56.0,36.0,29.98,West,265,11.0,34.0,46,0.00,,,-99.99,27.000000,,2013-03-04 02:32:00,
2013-03-03 18:42:00,56.0,36.0,29.98,West,265,11.0,34.0,46,0.00,,,-99.99,27.000000,,2013-03-04 02:42:00,
2013-03-03 18:52:00,56.0,36.0,29.98,West,265,11.0,34.0,46,0.00,,,-99.99,27.000000,,2013-03-04 02:52:00,
2013-03-03 19:21:00,54.0,36.0,29.99,West,276,12.0,20.0,50,0.00,,,0.00,0.000000,,2013-03-04 03:21:00,
2013-03-03 19:32:00,54.0,36.0,29.99,West,276,12.0,20.0,50,0.00,,,0.00,0.000000,,2013-03-04 03:32:00,
2013-03-03 19:42:00,54.0,36.0,29.99,West,276,12.0,20.0,50,0.00,,,0.00,0.000000,,2013-03-04 03:42:00,
2013-03-03 19:52:00,54.0,36.0,29.99,West,276,12.0,20.0,50,0.00,,,0.00,0.000000,,2013-03-04 03:52:00,
2013-03-03 20:22:00,55.0,38.0,29.99,WNW,282,17.0,21.0,52,0.00,,,0.00,0.000000,,2013-03-04 04:22:00,
2013-03-03 20:32:00,55.0,38.0,29.99,WNW,282,17.0,21.0,52,0.00,,,0.00,0.000000,,2013-03-04 04:32:00,
2013-03-03 20:42:00,55.0,38.0,29.99,WNW,282,17.0,21.0,52,0.00,,,0.00,0.000000,,2013-03-04 04:42:00,
2013-03-03 20:51:00,55.0,38.0,29.99,WNW,282,17.0,21.0,52,0.00,,,0.00,0.000000,,2013-03-04 04:51:00,
2013-03-03 21:22:00,54.0,39.0,29.99,WNW,284,17.0,25.0,57,0.00,,,0.00,0.000000,,2013-03-04 05:22:00,
2013-03-03 21:31:00,54.0,39.0,29.99,WNW,284,17.0,25.0,57,0.00,,,0.00,0.000000,,2013-03-04 05:31:00,
2013-03-03 21:42:00,54.0,39.0,29.99,WNW,284,17.0,25.0,57,0.00,,,0.00,0.000000,,2013-03-04 05:42:00,
2013-03-03 21:52:00,54.0,39.0,29.99,WNW,284,17.0,25.0,57,0.00,,,0.00,0.000000,,2013-03-04 05:52:00,
2013-03-03 22:21:00,53.0,39.0,30.01,West,275,11.0,25.0,58,0.00,,,0.00,0.000000,,2013-03-04 06:21:00,
2013-03-03 22:31:00,53.0,39.0,30.01,West,275,11.0,25.0,58,0.00,,,0.00,0.000000,,2013-03-04 06:31:00,
2013-03-03 22:42:00,53.0,39.0,30.01,West,275,11.0,25.0,58,0.00,,,0.00,0.000000,,2013-03-04 06:42:00,
2013-03-03 22:51:00,53.0,39.0,30.01,West,275,11.0,25.0,58,0.00,,,0.00,0.000000,,2013-03-04 06:51:00,
2013-03-03 23:21:00,51.0,37.0,29.99,WNW,283,17.0,21.0,58,0.00,,,0.00,0.000000,,2013-03-04 07:21:00,
2013-03-03 23:32:00,51.0,37.0,29.99,WNW,283,17.0,21.0,58,0.00,,,0.00,0.000000,,2013-03-04 07:32:00,
2013-03-03 23:41:00,51.0,37.0,29.99,WNW,283,17.0,21.0,58,0.00,,,0.00,0.000000,,2013-03-04 07:41:00,
2013-03-03 23:51:00,51.0,37.0,29.99,WNW,283,17.0,21.0,58,0.00,,,0.00,0.000000,,2013-03-04 07:51:00,